Location: Da
(13.1509°N, 4.9466°W)
Time: 10:38:39
(UTC+00:00)

Daily predictions for brighter satellites

Satellite Brightness Start Highest point End
(mag) Time Altitude Azimuth Time Altitude Azimuth Time Altitude Azimuth
Cosmos 1408 Rocket 3.6 18:57:03 10° N 19:01:30 77° E 19:05:57 10° S
FALCON 9 DEB 3.7 18:58:51 10° NW 19:01:47 47° SW 19:04:44 10° SSE
Feng Yun 1-1 Rocket 4.2 18:57:38 10° SSE 19:03:02 69° ENE 19:08:22 10° N
S3M 4.3 18:57:06 10° SSE 19:03:12 49° E 19:09:15 10° NNE
CZ-2C R/B 4.3 19:00:09 10° S 19:04:46 42° W 19:09:35 10° NNW
Ariane 42L Rocket 3.7 19:01:26 10° WSW 19:05:20 39° SSE 19:12:20 10° E
Cosmos 1437 4.2 19:09:37 10° SE 19:11:21 15° E 19:13:05 10° NE
USA 290 3.9 19:11:49 10° NNE 19:13:59 17° ENE 19:15:33 13° ESE
Cosmos 1553 Rocket 4.2 19:09:48 10° S 19:15:53 76° W 19:22:04 10° N
ARGOS 3.4 19:10:47 10° SSE 19:15:57 51° ENE 19:21:06 10° N
GPS 2-18 Rocket1 3.7 19:15:03 10° WNW 19:18:47 48° NNE 19:22:02 13° E
USA 276 3.7 19:17:14 10° SSE 19:19:16 16° SE 19:19:56 15° ESE
BREEZE-M DEB (TANK) 4.0 19:18:13 10° WNW 19:21:44 53° SW 19:32:59 10° SSE
Cosmos 1805 Rocket 4.3 19:21:27 10° NNE 19:25:20 31° E 19:28:39 13° SE
Spelda 4.3 19:23:31 10° SW 19:26:53 28° SSE 19:33:06 15° ESE
Centaur AC-64 4.5 19:20:53 10° W 19:29:36 26° SW 19:32:41 10° SSE
ARIANE 44LP R/B 3.7 19:23:58 10° WSW 19:30:43 26° SSW 19:32:32 16° SE
Cosmos 1244 Rocket 4.5 19:25:51 10° N 19:32:02 89° W 19:38:10 10° S
SL-08 RB Rocket 3.8 19:29:42 10° SSE 19:34:09 56° ENE 19:38:34 10° N
Cosmos 1782 3.0 19:30:22 10° SSE 19:34:14 49° E 19:38:04 10° NNE
ERS-2 1.9 19:32:24 10° NNE 19:36:00 76° ESE 19:39:37 10° S
SAR-Lupe-4 3.7 19:32:52 10° N 19:36:26 75° WNW 19:39:59 10° SSW
Intercosmos 25 Rocket 3.7 19:33:42 10° NNE 19:36:32 30° E 19:37:19 26° ESE
Sakura Rocket 3.4 19:33:57 10° WSW 19:37:45 60° NNW 19:42:35 10° NE
ASTRO E2 4.0 19:34:23 10° W 19:37:54 30° SSW 19:40:22 16° SSE
SJ 16-02 1.3 19:35:26 10° S 19:39:48 65° E 19:44:10 10° NNE
Cosmos 1743 Rocket 3.9 19:37:05 10° N 19:41:26 67° W 19:45:50 10° S
FALCON 9 R/B 4.3 19:35:10 10° WNW 19:42:14 65° SSW 20:03:20 18° SE
Cosmos 1151 Rocket 2.9 19:39:06 10° S 19:43:24 68° E 19:47:43 10° N
Intercosmos 24 4.4 19:40:09 10° SSW 19:44:22 58° W 19:47:52 10° N
Cosmos 1933 4.4 19:40:52 10° SSW 19:44:44 46° W 19:48:35 10° N
SL-08 ROCKET BODY 4.3 19:41:12 10° N 19:47:03 89° E 19:52:56 10° S
CZ-4 R/B 2.7 19:44:03 10° S 19:47:53 39° W 19:51:39 10° NNW
Cosmos 1500 Rocket 4.5 19:45:22 10° NNW 19:49:30 48° W 19:53:39 10° SSW
Cosmos 1943 Rocket 4.0 19:53:32 13° ENE 19:53:32 13° ENE 19:54:26 10° ENE
Sich 1 3.0 19:51:42 10° N 19:56:03 61° E 19:57:57 32° SSE
Helios 1A Rocket 3.1 19:57:22 41° ESE 19:58:16 49° ENE 20:02:16 10° N
YAOGAN 1 4.1 19:55:25 10° SSW 19:59:21 35° W 20:03:17 10° NW
Skynet4D Del rocket 4.1 19:54:43 10° W 19:59:57 57° NNW 20:05:02 12° NE
Cosmos 1666 Rocket 4.2 19:57:10 10° NNE 20:00:44 34° ENE 20:00:44 34° ENE
Cosmos 1900 4.4 19:56:21 10° SSW 20:01:28 82° WNW 20:06:34 10° NNE
Meteor 1-25 Rocket 4.3 19:55:52 10° N 20:01:35 58° E 20:04:20 30° SSE
GPS 2-15 Rocket1 3.7 19:57:20 10° SW 20:01:55 38° SSE 20:02:19 37° SSE
H-2A R/B 4.4 20:07:00 10° SW 20:10:22 19° W 20:13:47 10° NW
CSL-04 Debris 4.4 20:08:27 16° S 20:12:47 67° WSW 20:18:09 10° NNW
Cosmos 1386 Rocket 4.5 20:07:42 10° N 20:13:52 85° W 20:18:40 18° S
GPS 2-17 Rocket1 3.2 20:10:13 10° WNW 20:14:49 67° NNE 20:15:36 55° ENE
CZ-3B R/B 3.9 20:00:04 10° SW 20:16:36 50° SSE 20:19:36 38° ESE
CSL-04 Rocket 3.9 20:13:22 21° S 20:16:54 67° WSW 20:22:11 10° NNW
Cosmos 1461 3.1 20:12:40 10° SSW 20:17:19 89° WNW 20:22:02 10° NNE
Meteor 1-10 Rocket 4.2 20:22:05 54° E 20:22:05 54° E 20:27:31 10° NNE
ATLAS 5 CENTAUR R/B 2.6 20:16:55 10° NNW 20:23:35 90° SW 20:26:24 41° SSE
Cosmos 1812 3.8 20:36:33 44° WNW 20:36:33 44° WNW 20:39:48 10° N
OBJECT-B 3.3 20:38:57 19° NNW 20:38:57 19° NNW 20:39:58 10° NNW
COSMOS 2406 4.3 20:32:58 10° N 20:36:39 31° NE 20:36:39 31° NE
Delta 168 4.3 20:33:28 10° WNW 20:39:44 77° SSW 20:41:30 58° SE
Meteosat 1 Rocket2 4.1 20:36:55 10° W 20:40:14 38° NNW 20:40:14 38° NNW
Cosmos 1515 Rocket 4.5 20:44:32 45° W 20:44:44 45° W 20:48:55 10° NNW
Cosmos 1709 Rocket 3.9 20:39:23 10° N 20:45:30 80° W 20:46:31 63° SSW
DELTA 2 R/B (1) 3.7 20:45:39 10° NW 20:50:30 68° WNW 20:50:30 68° WNW
Cosmos 1833 Rocket 3.6 20:53:06 10° N 20:56:44 39° NNE 20:56:44 39° NNE
GEOS 3 Rocket 4.3 21:00:21 51° NNW 21:00:21 51° NNW 21:04:21 10° NNW
CZ-4C R/B 3.1 20:54:54 10° NNW 21:03:09 68° ENE 21:03:18 68° ENE
Resurs 01 Rocket 4.3 21:08:17 13° N 21:08:17 13° N 21:08:45 10° N
Ariane 42L Rocket 4.2 21:00:27 10° WSW 21:05:46 55° SSW 21:05:46 55° SSW
Cosmos 1943 Rocket 3.9 21:34:51 28° NW 21:34:51 28° NW 21:38:46 10° N
